User: anonymous   Login
Location: Unspecified
(0.0000°N, 0.0000°E)
Time: 20:14:05
(UTC+00:00)
Language:

TBA - TO BE ASSIGNED - Orbit

View from above orbital plane
View from above orbital plane
View from above satellite
View from above satellite

Ground track
Ground track

The orbit is defined by the following mean orbital elements,

1 68038U          26145.34838134 +.00000000 +00000-0 +83679-3 0 00006
2 68038  97.2851  94.4004 0001804  97.5777 262.5671 15.33443154    07
Epoch (UTC): 25 May 2026 08:21:40
Eccentricity: 0.0001804
inclination: 97.2851°
perigee height: 464 km
apogee height: 467 km
right ascension of ascending node: 94.4004°
argument of perigee: 97.5777°
revolutions per day: 15.33443154
mean anomaly at epoch: 262.5671°

The dashed part of the orbit path shows where the satellite is in the earth's shadow,  

DLR